TimeCST,TemperatureF,Dew PointF,Humidity,Sea Level PressureIn,VisibilityMPH,Wind Direction,Wind SpeedMPH,Gust SpeedMPH,PrecipitationIn,Events,Conditions,WindDirDegrees,DateUTC
12:55 AM,37.0,30.9,79,30.38,10.0,SW,3.5,-,N/A,,Mostly Cloudy,220,2012-11-16 06:55:00
1:55 AM,36.9,31.3,80,30.38,10.0,SW,3.5,-,N/A,,Clear,220,2012-11-16 07:55:00
2:55 AM,34.9,29.5,81,30.39,10.0,Calm,Calm,-,N/A,,Clear,0,2012-11-16 08:55:00
3:55 AM,34.0,29.5,84,30.39,10.0,SSW,3.5,-,N/A,,Clear,210,2012-11-16 09:55:00
4:55 AM,34.2,29.5,83,30.39,10.0,SW,3.5,-,N/A,,Clear,220,2012-11-16 10:55:00
5:55 AM,33.4,28.4,82,30.41,10.0,WSW,4.6,-,N/A,,Clear,240,2012-11-16 11:55:00
6:55 AM,32.5,28.4,85,30.42,10.0,SW,3.5,-,N/A,,Clear,220,2012-11-16 12:55:00
7:55 AM,37.4,29.3,73,30.44,10.0,Calm,Calm,-,N/A,,Clear,0,2012-11-16 13:55:00
8:55 AM,44.4,32.2,62,30.45,10.0,Calm,Calm,-,N/A,,Clear,0,2012-11-16 14:55:00
9:55 AM,51.1,33.6,51,30.45,10.0,Calm,Calm,-,N/A,,Clear,0,2012-11-16 15:55:00
10:55 AM,54.5,29.3,38,30.45,10.0,ESE,3.5,-,N/A,,Clear,110,2012-11-16 16:55:00
11:55 AM,57.4,30.0,35,30.43,10.0,ESE,4.6,-,N/A,,Clear,120,2012-11-16 17:55:00
12:55 PM,58.3,29.7,34,30.42,10.0,SE,4.6,-,N/A,,Clear,130,2012-11-16 18:55:00
1:55 PM,58.5,28.8,32,30.40,10.0,Calm,Calm,-,N/A,,Clear,0,2012-11-16 19:55:00
2:55 PM,59.4,30.2,33,30.39,10.0,Variable,3.5,-,N/A,,Clear,0,2012-11-16 20:55:00
3:55 PM,58.6,31.3,36,30.40,10.0,Calm,Calm,-,N/A,,Clear,0,2012-11-16 21:55:00
4:55 PM,56.5,29.5,36,30.40,10.0,NNE,3.5,-,N/A,,Clear,20,2012-11-16 22:55:00
5:55 PM,53.6,30.2,41,30.40,10.0,NE,3.5,-,N/A,,Clear,50,2012-11-16 23:55:00
6:55 PM,52.7,30.2,42,30.41,10.0,East,4.6,-,N/A,,Clear,80,2012-11-17 00:55:00
7:55 PM,50.7,30.4,46,30.41,10.0,East,4.6,-,N/A,,Clear,90,2012-11-17 01:55:00
8:55 PM,48.7,30.2,49,30.41,10.0,East,4.6,-,N/A,,Clear,90,2012-11-17 02:55:00
9:55 PM,41.9,31.3,66,30.42,10.0,SE,5.8,-,N/A,,Clear,140,2012-11-17 03:55:00
10:55 PM,40.3,31.5,71,30.42,10.0,SE,6.9,-,N/A,,Clear,130,2012-11-17 04:55:00
11:55 PM,38.3,31.5,76,30.43,10.0,SE,8.1,-,N/A,,Clear,140,2012-11-17 05:55:00